Montoursville, PA

7:27 AM EST on February 09, 2016 (GMT -0500)
Williamsport Rgnl

Weather History for KIPT - September, 2014

Change the Weather History Date:

Wednesday, September 3, 2014

  Actual Average Record
Temperature  
Mean Temperature 73 °F 68 °F  
Max Temperature 83 °F 78 °F 102 °F (1953)
Min Temperature 62 °F 58 °F 42 °F (1967)
Degree Days  
Heating Degree Days 0 1  
Month to date heating degree days 0 3  
Since 1 July heating degree days 5 17  
Cooling Degree Days 8 4  
Month to date cooling degree days 31 12  
Year to date cooling degree days 648 646  
Growing Degree Days 22 (Base 50)    
Moisture  
Dew Point 60 °F    
Average Humidity 68    
Maximum Humidity 93    
Minimum Humidity 42    
Precipitation  
Precipitation 0.00 in 0.14 in 2.28 in (1906)
Month to date precipitation 0.05 0.40  
Year to date precipitation 28.86 27.43  
Sea Level Pressure  
Sea Level Pressure 30.03 in    
Wind  
Wind Speed 4 mph (West)    
Max Wind Speed 9 mph    
Max Gust Speed 13 mph    
Visibility 10 miles    
Events      
T = Trace of Precipitation, MM = Missing Value Source: NWS Daily Summary

Daily Weather History Graph

Daily Weather History Graph

Search for Another Location

Airport or City:

Trip Planner

Search our weather history database for the weather conditions in past years. The results will help you decide how hot, cold, wet, or windy it might be!

Date:

Astronomy

Sep. 03, 2014 Rise Set
Actual Time 6:36 AM EDT 7:37 PM EDT
Civil Twilight 6:07 AM EDT 8:05 PM EDT
Nautical Twilight 5:34 AM EDT 8:38 PM EDT
Astronomical Twilight 4:59 AM EDT 9:13 PM EDT
Moon 3:19 PM EDT (9/3) 12:26 AM EDT (9/3)
Length of Visible Light 13h 57m
Length of Day
13h 01m
Waxing Gibbous, 63% of the Moon is Illuminated
Sep 3
Waxing Gibbous
Sep 8
Full
Sep 15
Last Quarter
Sep 24
New
Oct 1
First Quarter

Hourly Weather History & Observations

Time (EDT) Temp. Heat Index Dew Point Humidity Pressure Visibility Wind Dir Wind Speed Gust Speed Precip Events Conditions
12:54 AM 66.0 °F - 63.0 °F 90% 29.91 in 10.0 mi North 4.6 mph - N/A   Clear
1:54 AM 64.9 °F - 62.1 °F 90% 29.92 in 10.0 mi NNW 3.5 mph - N/A   Clear
2:54 AM 64.9 °F - 63.0 °F 93% 29.93 in 10.0 mi West 6.9 mph - N/A   Clear
3:54 AM 64.9 °F - 62.1 °F 90% 29.94 in 10.0 mi West 3.5 mph - N/A   Partly Cloudy
4:54 AM 64.0 °F - 60.1 °F 87% 29.97 in 10.0 mi West 3.5 mph - N/A   Clear
5:54 AM 64.0 °F - 61.0 °F 90% 29.98 in 10.0 mi West 6.9 mph - N/A   Clear
6:54 AM 62.1 °F - 59.0 °F 90% 30.00 in 8.0 mi Calm Calm - N/A   Clear
7:54 AM 63.0 °F - 59.0 °F 87% 30.02 in 10.0 mi Variable 3.5 mph - N/A   Clear
8:54 AM 69.1 °F - 62.1 °F 78% 30.03 in 10.0 mi West 6.9 mph - N/A   Clear
9:54 AM 71.1 °F - 60.1 °F 68% 30.05 in 10.0 mi West 6.9 mph - N/A   Clear
10:54 AM 73.9 °F - 61.0 °F 64% 30.06 in 10.0 mi WSW 4.6 mph - N/A   Partly Cloudy
11:54 AM 78.1 °F - 60.1 °F 54% 30.06 in 10.0 mi Variable 3.5 mph - N/A   Partly Cloudy
12:54 PM 79.0 °F - 59.0 °F 50% 30.05 in 10.0 mi West 6.9 mph - N/A   Scattered Clouds
1:54 PM 80.1 °F 80.4 °F 57.0 °F 45% 30.05 in 10.0 mi Calm Calm - N/A   Mostly Cloudy
2:54 PM 81.0 °F 81.0 °F 57.0 °F 44% 30.05 in 10.0 mi SW 3.5 mph - N/A   Partly Cloudy
3:54 PM 82.0 °F 81.7 °F 57.0 °F 42% 30.04 in 10.0 mi Variable 4.6 mph - N/A   Scattered Clouds
4:54 PM 80.1 °F 80.2 °F 55.9 °F 43% 30.04 in 10.0 mi Variable 3.5 mph - N/A   Scattered Clouds
5:54 PM 77.0 °F - 59.0 °F 54% 30.05 in 10.0 mi South 5.8 mph - N/A   Partly Cloudy
6:54 PM 79.0 °F - 61.0 °F 54% 30.06 in 10.0 mi South 5.8 mph - N/A   Scattered Clouds
7:54 PM 75.0 °F - 59.0 °F 57% 30.06 in 10.0 mi Calm Calm - N/A   Clear
8:54 PM 70.0 °F - 62.1 °F 76% 30.08 in 10.0 mi Calm Calm - N/A   Clear
9:54 PM 66.9 °F - 61.0 °F 81% 30.10 in 10.0 mi Calm Calm - N/A   Clear
10:54 PM 64.9 °F - 61.0 °F 87% 30.11 in 10.0 mi Calm Calm - N/A   Clear
11:54 PM 64.0 °F - 60.1 °F 87% 30.13 in 10.0 mi Calm Calm - N/A   Clear